DAL1003 KDCA-KMCO

Flight info

Callsign DAL1003
Flight time N/A
Altitude 34000
Route JDUBB4 RRSIN GSO Q83 ROYCO Q85 LPERD GTOUT1
Aircraft A319/M-SDE3FGHIRWY/LB1

Departure

Time 2026-05-07 20:41
Airport Ronald Reagan Washington National Airport (KDCA)

Arrival

Time N/A
Airport Orlando International Airport (KMCO)
Time Latitude Longitude Altitude Speed Heading
2026-05-07 20:16 38.85206 -77.04050 20 ft 0 kts 292°
2026-05-07 20:32 38.85201 -77.04033 22 ft 4 kts 284°
2026-05-07 20:32 38.85200 -77.04000 19 ft 4 kts 246°
2026-05-07 20:33 38.85216 -77.03984 21 ft 2 kts 176°
2026-05-07 20:33 38.85217 -77.03984 21 ft 0 kts 176°
2026-05-07 20:36 38.85216 -77.03984 21 ft 1 kts 176°
2026-05-07 20:36 38.85195 -77.03982 22 ft 5 kts 176°
2026-05-07 20:36 38.85165 -77.03951 19 ft 7 kts 105°
2026-05-07 20:37 38.85195 -77.03921 19 ft 7 kts 356°
2026-05-07 20:37 38.85256 -77.03928 18 ft 10 kts 355°
2026-05-07 20:37 38.85335 -77.03938 21 ft 12 kts 354°
2026-05-07 20:37 38.85418 -77.03947 21 ft 12 kts
2026-05-07 20:38 38.85501 -77.03950 24 ft 13 kts 355°
2026-05-07 20:38 38.85593 -77.03962 26 ft 14 kts 354°
2026-05-07 20:38 38.85696 -77.03971 26 ft 15 kts 356°
2026-05-07 20:38 38.85808 -77.03983 26 ft 17 kts 354°
2026-05-07 20:39 38.85932 -77.03984 26 ft 19 kts 13°
2026-05-07 20:39 38.86018 -77.03954 22 ft 0 kts 20°
2026-05-07 20:39 38.86024 -77.03951 22 ft 3 kts 20°
2026-05-07 20:40 38.86061 -77.03933 22 ft 8 kts 24°
2026-05-07 20:40 38.86088 -77.03882 21 ft 6 kts 111°
2026-05-07 20:40 38.86034 -77.03872 23 ft 25 kts 187°
2026-05-07 20:40 38.85644 -77.03815 24 ft 88 kts 176°
2026-05-07 20:41 38.84837 -77.03745 20 ft 147 kts 176°
2026-05-07 20:41 38.83624 -77.03637 205 ft 193 kts 176°
2026-05-07 20:41 38.82234 -77.03530 620 ft 212 kts 178°
2026-05-07 20:41 38.80765 -77.03487 1664 ft 205 kts 180°
2026-05-07 20:42 38.79322 -77.03480 2480 ft 216 kts 180°
2026-05-07 20:42 38.77753 -77.03487 3040 ft 234 kts 180°
2026-05-07 20:42 38.76106 -77.03792 3672 ft 248 kts 205°
2026-05-07 20:42 38.74741 -77.05178 4355 ft 259 kts 236°
2026-05-07 20:43 38.74098 -77.07289 5035 ft 245 kts 264°
2026-05-07 20:43 38.74180 -77.09383 5102 ft 234 kts 278°
2026-05-07 20:43 38.74222 -77.11505 5263 ft 249 kts 261°
2026-05-07 20:43 38.73839 -77.13713 5861 ft 264 kts 253°
2026-05-07 20:44 38.73262 -77.15926 6400 ft 257 kts 249°
2026-05-07 20:44 38.72567 -77.18118 6554 ft 272 kts 246°
2026-05-07 20:44 38.71611 -77.20214 6969 ft 274 kts 233°
2026-05-07 20:44 38.70385 -77.22102 7421 ft 276 kts 228°
2026-05-07 20:45 38.69062 -77.23894 7878 ft 278 kts 225°
2026-05-07 20:45 38.67678 -77.25638 8300 ft 280 kts 224°
2026-05-07 20:45 38.66252 -77.27352 8707 ft 282 kts 223°
2026-05-07 20:45 38.64795 -77.29045 9095 ft 284 kts 222°
2026-05-07 20:46 38.63315 -77.30730 9490 ft 286 kts 221°
2026-05-07 20:46 38.61815 -77.32414 9866 ft 287 kts 221°
2026-05-07 20:46 38.60303 -77.34093 10147 ft 293 kts 221°
2026-05-07 20:46 38.58722 -77.35839 10164 ft 307 kts 221°
2026-05-07 20:47 38.57086 -77.37639 10407 ft 310 kts 221°
2026-05-07 20:47 38.55476 -77.39407 11120 ft 298 kts 221°
2026-05-07 20:47 38.53940 -77.41091 11615 ft 294 kts 221°
2026-05-07 20:47 38.52377 -77.42804 11933 ft 296 kts 221°
2026-05-07 20:48 38.50812 -77.44520 12260 ft 298 kts 221°
2026-05-07 20:48 38.49235 -77.46247 12572 ft 299 kts 221°
2026-05-07 20:48 38.47650 -77.47981 12884 ft 301 kts 221°
2026-05-07 20:48 38.46059 -77.49722 13196 ft 302 kts 221°
2026-05-07 20:49 38.44457 -77.51474 13499 ft 304 kts 221°
2026-05-07 20:49 38.42849 -77.53230 13794 ft 305 kts 220°
2026-05-07 20:49 38.41203 -77.54950 14069 ft 306 kts 218°
2026-05-07 20:49 38.39511 -77.56613 14349 ft 308 kts 217°
2026-05-07 20:50 38.37782 -77.58229 14627 ft 309 kts 216°
2026-05-07 20:50 38.36024 -77.59813 14898 ft 310 kts 215°
2026-05-07 20:50 38.34239 -77.61378 15163 ft 312 kts 214°
2026-05-07 20:50 38.32453 -77.62959 15419 ft 313 kts 216°
2026-05-07 20:51 38.30699 -77.64617 15663 ft 314 kts 218°
2026-05-07 20:51 38.28968 -77.66325 15906 ft 315 kts 218°
2026-05-07 20:51 38.27251 -77.68068 16160 ft 317 kts 219°
2026-05-07 20:51 38.25538 -77.69840 16406 ft 318 kts 219°
2026-05-07 20:52 38.23829 -77.71633 16641 ft 319 kts 220°
2026-05-07 20:52 38.22115 -77.73446 16874 ft 320 kts 220°
2026-05-07 20:52 38.20428 -77.75240 17099 ft 321 kts 220°
2026-05-07 20:52 38.18711 -77.77073 17314 ft 322 kts 220°
2026-05-07 20:53 38.16994 -77.78908 17528 ft 323 kts 220°
2026-05-07 20:53 38.15271 -77.80750 17740 ft 324 kts 220°
2026-05-07 20:53 38.13538 -77.82603 17951 ft 325 kts 220°
2026-05-07 20:53 38.11805 -77.84454 18160 ft 326 kts 220°
2026-05-07 20:54 38.10060 -77.86318 18359 ft 327 kts 220°
2026-05-07 20:54 38.08315 -77.88181 18556 ft 329 kts 220°
2026-05-07 20:54 38.06568 -77.90044 18749 ft 330 kts 220°
2026-05-07 20:54 38.04808 -77.91919 18941 ft 331 kts 220°
2026-05-07 20:55 38.03032 -77.93808 19014 ft 336 kts 220°
2026-05-07 20:55 38.01227 -77.95728 19025 ft 342 kts 220°
2026-05-07 20:55 37.99391 -77.97678 19145 ft 345 kts 220°
2026-05-07 20:55 37.97573 -77.99609 19256 ft 348 kts 220°
2026-05-07 20:56 37.95738 -78.01554 19650 ft 340 kts 220°
2026-05-07 20:56 37.93947 -78.03454 20077 ft 332 kts 220°
2026-05-07 20:56 37.92197 -78.05310 20504 ft 324 kts 220°
2026-05-07 20:56 37.90490 -78.07117 20937 ft 315 kts 220°
2026-05-07 20:57 37.88830 -78.08873 21361 ft 306 kts 220°
2026-05-07 20:57 37.87225 -78.10571 21789 ft 295 kts 220°
2026-05-07 20:57 37.85681 -78.12203 22213 ft 283 kts 220°
2026-05-07 20:57 37.84210 -78.13757 22647 ft 267 kts 220°
2026-05-07 20:58 37.82807 -78.15241 22839 ft 261 kts 220°
2026-05-07 20:58 37.81392 -78.16735 22619 ft 271 kts 220°
2026-05-07 20:58 37.79924 -78.18286 22471 ft 276 kts 220°
2026-05-07 20:58 37.78468 -78.19822 22662 ft 268 kts 220°
2026-05-07 20:59 37.77053 -78.21313 22781 ft 264 kts 220°
2026-05-07 20:59 37.75629 -78.22814 22634 ft 270 kts 220°
2026-05-07 20:59 37.74172 -78.24348 22537 ft 274 kts 220°
2026-05-07 20:59 37.72740 -78.25856 22652 ft 269 kts 220°
2026-05-07 21:00 37.71299 -78.27372 22718 ft 273 kts 220°
2026-05-07 21:00 37.69819 -78.28928 22775 ft 282 kts 220°
2026-05-07 21:00 37.68279 -78.30547 22826 ft 294 kts 220°
2026-05-07 21:00 37.66675 -78.32232 22883 ft 306 kts 220°
2026-05-07 21:01 37.65006 -78.33985 22955 ft 319 kts 220°
2026-05-07 21:01 37.63264 -78.35812 23042 ft 331 kts 220°
2026-05-07 21:01 37.61456 -78.37707 23158 ft 343 kts 220°
2026-05-07 21:01 37.59608 -78.39643 23533 ft 346 kts 220°
2026-05-07 21:02 37.57753 -78.41584 23938 ft 348 kts 220°
2026-05-07 21:02 37.55888 -78.43534 24341 ft 350 kts 220°
2026-05-07 21:02 37.54032 -78.45475 24724 ft 352 kts 220°
2026-05-07 21:02 37.52140 -78.47452 25097 ft 354 kts 220°
2026-05-07 21:03 37.50240 -78.49437 25458 ft 356 kts 220°
2026-05-07 21:03 37.48322 -78.51434 25822 ft 358 kts 220°
2026-05-07 21:03 37.46393 -78.53437 26164 ft 360 kts 220°
2026-05-07 21:03 37.44455 -78.55442 26500 ft 362 kts 219°
2026-05-07 21:04 37.42504 -78.57460 26827 ft 364 kts 219°
2026-05-07 21:04 37.40541 -78.59486 27154 ft 366 kts 219°
2026-05-07 21:04 37.38593 -78.61496 27463 ft 368 kts 219°
2026-05-07 21:04 37.36586 -78.63564 27771 ft 370 kts 219°
2026-05-07 21:05 37.34588 -78.65621 28085 ft 371 kts 219°
2026-05-07 21:05 37.32607 -78.67660 28376 ft 373 kts 219°
2026-05-07 21:05 37.30590 -78.69734 28663 ft 375 kts 219°
2026-05-07 21:05 37.28565 -78.71815 28944 ft 377 kts 219°
2026-05-07 21:06 37.26531 -78.73904 29220 ft 379 kts 219°
2026-05-07 21:06 37.24486 -78.76003 29491 ft 380 kts 219°
2026-05-07 21:06 37.22436 -78.78105 29758 ft 382 kts 219°
2026-05-07 21:06 37.20372 -78.80220 30010 ft 384 kts 219°
2026-05-07 21:07 37.18299 -78.82343 30267 ft 385 kts 219°
2026-05-07 21:07 37.16218 -78.84473 30512 ft 387 kts 219°
2026-05-07 21:07 37.14837 -78.85886 30680 ft 388 kts 219°
2026-05-07 21:07 37.12738 -78.88031 30920 ft 390 kts 219°
2026-05-07 21:08 37.10633 -78.90182 31163 ft 391 kts 219°
2026-05-07 21:08 37.08521 -78.92338 31400 ft 392 kts 219°
2026-05-07 21:08 37.06400 -78.94503 31630 ft 394 kts 219°
2026-05-07 21:08 37.04273 -78.96670 31855 ft 395 kts 219°
2026-05-07 21:09 37.02137 -78.98846 32060 ft 397 kts 219°
2026-05-07 21:09 36.99991 -79.01030 32272 ft 398 kts 219°
2026-05-07 21:09 36.97839 -79.03221 32486 ft 399 kts 219°
2026-05-07 21:09 36.95682 -79.05423 32682 ft 401 kts 219°
2026-05-07 21:10 36.93523 -79.07633 32879 ft 402 kts 219°
2026-05-07 21:10 36.91356 -79.09852 33074 ft 404 kts 219°
2026-05-07 21:10 36.89179 -79.12082 33276 ft 405 kts 219°
2026-05-07 21:10 36.86999 -79.14315 33459 ft 406 kts 219°
2026-05-07 21:11 36.84805 -79.16561 33644 ft 407 kts 219°
2026-05-07 21:11 36.82632 -79.18785 33820 ft 408 kts 219°
2026-05-07 21:11 36.78194 -79.23323 33969 ft 417 kts 219°
2026-05-07 21:12 36.73647 -79.27965 33995 ft 429 kts 219°
2026-05-07 21:12 36.68963 -79.32742 34001 ft 441 kts 219°
2026-05-07 21:13 36.64148 -79.37642 34001 ft 453 kts 219°
2026-05-07 21:13 36.59199 -79.42670 34001 ft 465 kts 219°
2026-05-07 21:14 36.54124 -79.47818 34000 ft 476 kts 219°
2026-05-07 21:14 36.48959 -79.53048 34001 ft 487 kts 219°
2026-05-07 21:15 36.43648 -79.58416 33996 ft 493 kts 219°
2026-05-07 21:15 36.38327 -79.63784 33995 ft 491 kts 219°
2026-05-07 21:16 36.33056 -79.69094 33999 ft 485 kts 219°
2026-05-07 21:16 36.27802 -79.74376 34001 ft 487 kts 219°
2026-05-07 21:17 36.22528 -79.79669 34000 ft 488 kts 219°
2026-05-07 21:17 36.17249 -79.84959 33998 ft 487 kts 219°
2026-05-07 21:18 36.12021 -79.90190 34000 ft 486 kts 219°
2026-05-07 21:18 36.06702 -79.95408 33995 ft 488 kts 213°
2026-05-07 21:19 36.00664 -79.99201 34001 ft 488 kts 204°
2026-05-07 21:19 35.94414 -80.02497 33997 ft 487 kts 202°
2026-05-07 21:20 35.88261 -80.05606 33996 ft 462 kts 202°
2026-05-07 21:20 35.82324 -80.08563 34001 ft 462 kts 202°
2026-05-07 21:21 35.76306 -80.11542 34000 ft 470 kts 202°
2026-05-07 21:21 35.70236 -80.14536 33999 ft 468 kts 202°
2026-05-07 21:22 35.64208 -80.17501 34000 ft 466 kts 202°
2026-05-07 21:22 35.58214 -80.20445 34001 ft 468 kts 202°
2026-05-07 21:23 35.52170 -80.23408 34000 ft 467 kts 202°
2026-05-07 21:23 35.46142 -80.26361 34000 ft 466 kts 202°
2026-05-07 21:24 35.40021 -80.29002 34003 ft 467 kts 193°
2026-05-07 21:24 35.38553 -80.29412 34005 ft 468 kts 192°